This is the latest recevied weather packets stored in our database for station/object KK6MIG-13. If no packets are shown the sender has not sent any weather packets the latest 1 day(s).
| Time | Temp. | Humidity | Pressure | Rain* | Wind** | Luminosity | Snow |
|---|---|---|---|---|---|---|---|
| 1778011893 | 15° C | 1% | 1014.8 hPa | 0.25 mm | 4.92 m/s, 271° | 784 W/m² | - |
| 1778011833 | 15° C | 1% | 1014.9 hPa | 0.25 mm | 4.92 m/s, 238° | 784 W/m² | - |
| 1778011767 | 15° C | 1% | 1014.9 hPa | 0.25 mm | 4.92 m/s, 294° | 865 W/m² | - |
| 1778011706 | 15° C | 1% | 1014.9 hPa | 0.25 mm | 4.92 m/s, 265° | 886 W/m² | - |
| 1778011646 | 15° C | 1% | 1014.8 hPa | 0.25 mm | 4.92 m/s, 263° | 958 W/m² | - |
| 1778011587 | 15° C | 1% | 1014.9 hPa | 0.25 mm | 4.47 m/s, 236° | 970 W/m² | - |
| 1778011527 | 15° C | 1% | 1014.9 hPa | 0.25 mm | 4.47 m/s, 232° | 918 W/m² | - |
| 1778011461 | 15° C | 1% | 1014.8 hPa | 0.25 mm | 4.47 m/s, 264° | 918 W/m² | - |
| 1778011400 | 15° C | 1% | 1014.9 hPa | 0.25 mm | 4.47 m/s, 261° | 918 W/m² | - |
| 1778011350 | 15° C | 1% | 1014.9 hPa | 0.25 mm | 4.02 m/s, 227° | 877 W/m² | - |
| 1778011346 | 15° C | 1% | 1014.8 hPa | 0.25 mm | 4.02 m/s, 252° | 877 W/m² | - |
| 1778011221 | 15° C | 1% | 1014.9 hPa | 0.25 mm | 4.02 m/s, 263° | 993 W/m² | - |
| 1778011155 | 15.56° C | 1% | 1014.9 hPa | 0.25 mm | 4.02 m/s, 226° | 893 W/m² | - |
| 1778011095 | 15.56° C | 1% | 1014.9 hPa | 0.25 mm | 4.02 m/s, 234° | 842 W/m² | - |
| 1778011034 | 15° C | 1% | 1014.9 hPa | 0.25 mm | 4.02 m/s, 265° | 939 W/m² | - |
| 1778010976 | 15° C | 1% | 1014.9 hPa | 0.25 mm | 4.02 m/s, 286° | 939 W/m² | - |
| 1778010915 | 15° C | 1% | 1014.9 hPa | 0.25 mm | 4.02 m/s, 288° | 846 W/m² | - |
| 1778010855 | 15° C | 1% | 1015 hPa | 0.25 mm | 4.02 m/s, 281° | 846 W/m² | - |
| 1778010795 | 15° C | 1% | 1015 hPa | 0.25 mm | 4.02 m/s, 272° | 846 W/m² | - |
| 1778010735 | 15° C | 1% | 1015 hPa | 0.25 mm | 4.02 m/s, 257° | 912 W/m² | - |
| 1778010684 | 15° C | 1% | 1015 hPa | 0.25 mm | 4.02 m/s, 265° | 898 W/m² | - |
| 1778010679 | 15° C | 1% | 1015 hPa | 0.25 mm | 4.02 m/s, 288° | 819 W/m² | - |
| 1778010555 | 15.56° C | 1% | 1015 hPa | 0.25 mm | 3.58 m/s, 258° | 898 W/m² | - |
| 1778010508 | 15.56° C | 1% | 1015 hPa | 0.25 mm | 3.58 m/s, 269° | 953 W/m² | - |
| 1778010439 | 15.56° C | 1% | 1015 hPa | 0.25 mm | 3.58 m/s, 247° | 953 W/m² | - |
* Rain latest hour (hover to see other rain measurements)
** Current wind speed in m/s (hover to see current wind gust speed)